Campeche, Mexico

12:30 PM EST on August 28, 2016 (GMT -0500)
Alberto Acuna Ongay

Weather History for MMCP - April, 2013

Change the Weather History Date:

Tuesday, April 23, 2013

  Actual Average Record
Temperature  
Mean Temperature 88 °F -  
Max Temperature 102 °F 91 °F 102 °F (2013)
Min Temperature 73 °F 73 °F 66 °F (1998)
Cooling Degree Days 22    
Growing Degree Days 38 (Base 50)    
Moisture  
Dew Point 74 °F    
Average Humidity 71    
Maximum Humidity 94    
Minimum Humidity 32    
Precipitation  
Precipitation 0.00 in - - ()
Sea Level Pressure  
Sea Level Pressure 29.87 in    
Wind  
Wind Speed 7 mph ()    
Max Wind Speed 17 mph    
Max Gust Speed 23 mph    
Visibility 6.5 miles    
Events      
Averages and records for this station are not official NWS values.
T = Trace of Precipitation, MM = Missing Value Source: Averaged Metar Reports

Daily Weather History Graph

Daily Weather History Graph

Search for Another Location

Airport or City:

Trip Planner

Search our weather history database for the weather conditions in past years. The results will help you decide how hot, cold, wet, or windy it might be!

Date:

Astronomy

Apr. 23, 2013 Rise Set
Actual Time 6:38 AM CDT 7:22 PM CDT
Civil Twilight 6:15 AM CDT 7:45 PM CDT
Nautical Twilight 5:48 AM CDT 8:12 PM CDT
Astronomical Twilight 5:21 AM CDT 8:39 PM CDT
Moon 5:30 PM CDT (4/23) 4:48 AM CDT (4/23)
Length of Visible Light 13h 30m
Length of Day
12h 44m
Waxing Gibbous, 94% of the Moon is Illuminated
Apr 23
Waxing Gibbous
Apr 25
Full
May 2
Last Quarter
May 9
New
May 17
First Quarter

Hourly Weather History & Observations

Time (CDT) Temp. Heat Index Dew Point Humidity Pressure Visibility Wind Dir Wind Speed Gust Speed Precip Events Conditions
12:50 AM 82 °F - 73 °F 67% 29.95 in 4 mi ENE 8.9 mph - -  
3:50 AM 78 °F - 73 °F 79% 29.90 in 4 mi NNE 2.2 mph - -  
5:12 AM 75.2 °F - 71.6 °F 89% 29.89 in 7.0 mi East 4.6 mph - N/A   Clear
5:45 AM 75.2 °F - 71.6 °F 89% 29.89 in 7.0 mi East 5.8 mph - N/A   Clear
6:43 AM 73.4 °F - 71.6 °F 94% 29.91 in 7.0 mi East 4.6 mph - N/A   Clear
6:48 AM 73 °F - 71 °F 91% 29.90 in 6 mi ESE 2.2 mph - -  
7:45 AM 75.2 °F - 71.6 °F 89% 29.93 in 7.0 mi East 5.8 mph - N/A   Clear
8:52 AM 78.8 °F - 73.4 °F 83% 29.93 in 7.0 mi East 6.9 mph - N/A   Clear
9:48 AM 89 °F - 79 °F 66% 29.94 in 6 mi ESE 4.5 mph - -  
9:54 AM 84.2 °F 89.6 °F 71.6 °F 66% 29.94 in 7.0 mi East 11.5 mph - N/A   Clear
10:41 AM 87.8 °F 93.8 °F 71.6 °F 58% 29.93 in 7.0 mi ESE 17.3 mph - N/A   Clear
11:42 AM 91.4 °F 94.0 °F 66.2 °F 43% 29.91 in 7.0 mi ESE 11.5 mph - N/A   Clear
12:47 PM 93.2 °F 96.2 °F 66.2 °F 41% 29.88 in 7.0 mi East 9.2 mph - N/A   Partly Cloudy
12:50 PM 99 °F - 75 °F 37% 29.88 in 6 mi East 4.5 mph - -   Scattered Clouds
1:42 PM 95.0 °F 98.5 °F 66.2 °F 39% 29.85 in 7.0 mi ESE 11.5 mph - N/A   Partly Cloudy
2:40 PM 98.6 °F 101.0 °F 64.4 °F 32% 29.82 in 7.0 mi ESE 11.5 mph - N/A   Partly Cloudy
3:43 PM 87.8 °F 99.7 °F 77.0 °F 70% 29.79 in 7.0 mi West 11.5 mph 23.0 mph N/A   Scattered Clouds
3:50 PM 92 °F - 79 °F 59% 29.80 in 6 mi West 6.7 mph - -   Scattered Clouds
4:43 PM 87.8 °F 99.7 °F 77.0 °F 70% 29.78 in 7.0 mi West 11.5 mph 23.0 mph N/A   Scattered Clouds
5:42 PM 86.0 °F 96.9 °F 77.0 °F 74% 29.79 in 7.0 mi WNW 11.5 mph 23.0 mph N/A   Scattered Clouds
6:42 PM 84.2 °F 96.1 °F 78.8 °F 84% 29.79 in 7.0 mi North 11.5 mph 23.0 mph N/A   Partly Cloudy
6:50 PM 86 °F - 77 °F 69% 29.80 in 6 mi NNW 6.7 mph - -   Scattered Clouds
7:43 PM 84.2 °F 96.1 °F 78.8 °F 84% 29.80 in 7.0 mi NNW 11.5 mph 23.0 mph N/A   Clear
8:42 PM 84.2 °F 98.3 °F 80.6 °F 89% 29.82 in 7.0 mi North 11.5 mph - N/A   Clear
9:41 PM 84.2 °F 98.3 °F 80.6 °F 89% 29.84 in 7.0 mi North 9.2 mph - N/A   Clear
9:50 PM 83 °F - 79 °F 84% 29.85 in 4 mi Calm Calm - -  
10:42 PM 84.2 °F 90.9 °F 73.4 °F 70% 29.87 in 7.0 mi ESE 11.5 mph - N/A   Clear